1497110400.64,8133,18.5,74008.0,1.71,-3.03,-4.41,0,*42
1497110401.87,8134,18.56,74014.0,1.71,-2.71,-3.35,0,*45
1497110403.1,8135,18.5,74010.3,1.73,-2.23,-2.71,0,*40
1497110404.37,8136,18.5,74012.8,1.71,-1.83,-2.47,0,*4D
1497110405.57,8137,18.5,74012.3,1.71,-1.59,-2.27,0,*4D
1497110406.83,8138,18.5,74008.3,1.71,-1.43,-2.11,0,*4C
1497110408.05,8139,18.5,74010.5,1.67,-1.17,-1.67,0,*49
1497110409.28,8140,18.5,74012.5,1.69,-0.89,-1.35,0,*78
1497110410.47,8141,18.5,74010.5,1.67,-0.77,-1.25,0,*77
1497110411.67,8142,18.5,74012.3,1.69,-0.23,-0.61,0,*4A
1497110412.82,8143,18.5,74010.3,1.69,0.01,-0.45,0,*50
1497110413.98,8144,18.5,74014.5,1.69,0.01,-0.49,0,*5B
1497110415.15,8145,18.5,74014.0,1.69,-0.03,-0.65,0,*7B
1497110416.32,8146,18.5,74016.5,1.69,-0.03,-0.73,0,*7F
1497110417.54,8147,18.5,74016.5,1.69,-0.23,-0.97,0,*46
1497110418.75,8148,18.5,74016.0,1.67,-0.03,-0.89,0,*7A
1497110419.97,8149,18.5,74016.0,1.67,-0.03,-1.01,0,*4A
1497110421.17,8150,18.5,74018.8,1.69,-0.03,-1.05,0,*48
1497110422.36,8151,18.5,74020.3,1.67,-0.07,-1.25,0,*41
1497110423.56,8152,18.5,74014.5,1.69,-0.23,-1.51,0,*79
1497110424.77,8153,18.5,74022.8,1.67,-0.41,-1.75,0,*74
1497110425.99,8154,18.56,74020.0,1.67,-0.69,-2.03,0,*7B
1497110427.24,8155,18.5,74018.0,1.67,-1.17,-2.63,0,*44
1497110428.47,8156,18.5,74018.3,1.65,-1.05,-2.55,0,*43
1497110429.66,8157,18.5,74018.3,1.61,-1.17,-2.35,0,*43
1497110430.85,8158,18.5,74016.3,1.61,-1.21,-2.43,0,*48
1497110432.05,8159,18.5,74014.3,1.65,-1.51,-2.47,0,*4E
1497110433.24,8160,18.5,74018.3,1.61,-1.29,-2.15,0,*48
1497110434.46,8161,18.5,74022.5,1.61,-1.33,-2.03,0,*45
1497110435.67,8162,18.5,74022.8,1.59,-1.21,-1.63,0,*4B
1497110436.91,8163,18.56,74024.3,1.59,-1.01,-1.75,0,*4F
1497110438.12,8164,18.5,74018.3,1.59,-0.69,-1.59,0,*79
1497110439.35,8165,18.5,74020.0,1.59,-0.49,-1.47,0,*75
1497110440.55,8166,18.5,74020.3,1.59,-0.33,-1.25,0,*7F
1497110441.78,8167,18.5,74022.5,1.59,-0.61,-1.87,0,*71
1497110443.02,8168,18.5,74020.0,1.59,-1.01,-2.23,0,*44
1497110444.26,8169,18.5,74020.3,1.59,-0.69,-1.99,0,*78
1497110445.49,8170,18.5,74022.0,1.59,-0.73,-2.47,0,*7B
1497110446.67,8171,18.5,74020.5,1.61,-0.69,-3.23,0,*79
1497110447.84,8172,18.5,74022.3,1.65,-0.61,-4.09,0,*79
1497110449.03,8173,18.5,74016.8,1.65,-0.61,-5.11,0,*70
1497110450.24,8174,18.5,74016.0,1.65,-1.01,-6.43,0,*44
1497110451.44,8175,18.5,74016.8,1.61,-1.59,-7.27,0,*4F
1497110452.65,8176,18.5,74020.8,1.61,-2.15,-7.73,0,*46
1497110453.86,8177,18.5,74018.3,1.65,-2.55,-7.83,0,*48
1497110455.04,8178,18.5,74022.3,1.65,-2.91,-7.87,0,*4B
1497110456.24,8179,18.5,74022.5,1.65,-3.19,-7.57,0,*46
1497110457.48,8180,18.5,74022.3,1.65,-3.59,-7.73,0,*42
1497110458.67,8181,18.5,74022.8,1.65,-3.55,-8.67,0,*45
1497110459.88,8182,18.5,74018.5,1.65,-3.87,-9.61,0,*4E
1497110461.08,8183,18.5,74018.8,1.65,-3.67,-9.31,0,*44
1497110462.26,8184,18.5,74018.0,1.69,-3.83,-8.75,0,*44
1497110463.47,8185,18.5,74020.5,1.67,-4.05,-8.37,0,*44
1497110464.67,8186,18.56,74022.8,1.67,-4.17,-8.25,0,*47
1497110465.88,8187,18.5,74022.8,1.65,-4.17,-7.57,0,*4E
1497110467.08,8188,18.56,74024.5,1.61,-4.21,-6.81,0,*4A
1497110468.26,8189,18.5,74022.5,1.61,-4.33,-6.05,0,*44
1497110469.47,8190,18.5,74022.5,1.65,-3.87,-5.19,0,*4E
1497110470.71,8191,18.5,74016.3,1.61,-3.55,-4.89,0,*4C
1497110471.89,8192,18.5,74020.0,1.61,-2.83,-4.45,0,*45
1497110473.16,8193,18.5,74016.3,1.59,-2.51,-5.07,0,*47
1497110474.43,8194,18.5,74022.0,1.59,-2.11,-5.07,0,*44
1497110475.65,8195,18.5,74022.0,1.61,-2.03,-4.25,0,*4C
1497110476.91,8196,18.5,74020.0,1.59,-1.95,-4.01,0,*4E
1497110478.1,8197,18.5,74016.3,1.57,-1.75,-3.63,0,*4C
1497110479.33,8198,18.5,74016.0,1.57,-1.47,-3.51,0,*43
1497110480.54,8199,18.5,74016.0,1.57,-1.83,-3.75,0,*4C
1497110481.72,8200,18.5,74018.0,1.57,-1.59,-3.87,0,*45
1497110482.92,8201,18.5,74020.0,1.57,-1.35,-3.83,0,*4A
1497110484.15,8202,18.5,74018.3,1.55,-1.13,-4.17,0,*45
1497110485.4,8203,18.5,74018.0,1.55,-1.25,-5.07,0,*41
1497110486.64,8204,18.5,74016.5,1.55,-1.29,-5.77,0,*4D
1497110487.87,8205,18.5,74014.0,1.55,-1.47,-6.39,0,*4D
1497110489.09,8206,18.5,74012.3,1.55,-1.63,-6.81,0,*4B
1497110490.33,8207,18.5,74010.5,1.55,-1.87,-7.49,0,*45
1497110491.54,8208,18.5,74012.5,1.53,-2.11,-8.41,0,*47
1497110492.74,8209,18.5,74012.0,1.55,-2.23,-8.55,0,*44
1497110493.92,8210,18.5,74012.8,1.53,-2.23,-9.23,0,*4A
1497110495.13,8211,18.5,74018.3,1.53,-2.39,-9.83,0,*4A
1497110496.33,8212,18.5,74022.5,1.53,-2.79,-10.19,0,*76
1497110497.54,8213,18.5,74020.0,1.51,-2.91,-10.85,0,*76
1497110498.81,8214,18.5,74016.8,1.51,-2.71,-10.75,0,*70
1497110500.04,8215,18.5,74022.8,1.51,-3.23,-11.33,0,*74
1497110501.23,8216,18.5,74024.0,1.49,-3.19,-11.19,0,*7F
1497110502.48,8217,18.5,74022.3,1.51,-3.19,-11.67,0,*7E
1497110503.72,8218,18.5,74020.3,1.51,-2.95,-11.97,0,*7B
1497110504.97,8219,18.5,74022.8,1.51,-3.15,-11.67,0,*7C
1497110506.22,8220,18.5,74022.5,1.51,-3.47,-12.39,0,*79
1497110507.48,8221,18.5,74024.8,1.51,-3.55,-12.57,0,*73
1497110508.71,8222,18.5,74026.0,1.51,-3.31,-12.29,0,*7B
1497110509.95,8223,18.5,74026.0,1.51,-3.19,-12.11,0,*7B
1497110511.17,8224,18.5,74022.3,1.51,-3.23,-12.03,0,*76
1497110512.41,8225,18.5,74024.8,1.51,-3.47,-12.29,0,*7D
1497110513.61,8226,18.5,74024.5,1.53,-3.19,-12.39,0,*76
1497110514.82,8227,18.5,74022.8,1.53,-2.91,-11.85,0,*72
1497110516.03,8228,18.5,74026.3,1.53,-2.91,-11.85,0,*7D
1497110517.24,8229,18.5,74022.8,1.53,-2.99,-11.85,0,*74
1497110518.47,8230,18.5,74022.3,1.53,-3.63,-12.39,0,*7C
1497110519.68,8231,18.5,74020.0,1.53,-3.87,-12.83,0,*76
1497110520.88,8232,18.5,74020.0,1.53,-3.87,-12.93,0,*74
1497110522.1,8233,18.5,74022.5,1.53,-3.87,-12.83,0,*74
1497110523.34,8234,18.5,74022.3,1.53,-3.67,-12.83,0,*7D
1497110524.61,8235,18.5,74020.3,1.51,-3.59,-12.65,0,*7B
1497110525.83,8236,18.5,74018.8,1.51,-3.83,-12.89,0,*7D
1497110527.06,8237,18.5,74018.0,1.51,-3.79,-12.89,0,*79
1497110528.33,8238,18.5,74016.0,1.51,-3.67,-12.83,0,*73
1497110529.56,8239,18.5,74020.8,1.51,-3.83,-12.89,0,*72
1497110530.8,8240,18.5,74020.5,1.49,-3.71,-12.61,0,*7E
1497110532.04,8241,18.5,74026.3,1.49,-3.71,-12.79,0,*76
1497110533.32,8242,18.5,74024.8,1.47,-3.59,-12.75,0,*7D
1497110534.59,8243,18.5,74024.8,1.47,-3.47,-12.79,0,*7F
1497110535.83,8244,18.5,74024.3,1.49,-3.51,-13.01,0,*7F
1497110537.05,8245,18.5,74018.0,1.49,-3.47,-12.93,0,*73
1497110538.27,8246,18.5,74016.8,1.47,-3.35,-12.43,0,*76
1497110539.52,8247,18.5,74016.0,1.47,-3.19,-12.35,0,*78
1497110540.74,8248,18.5,74018.3,1.47,-3.19,-12.29,0,*7A
1497110541.99,8249,18.5,74022.8,1.47,-3.11,-11.63,0,*7E
1497110543.24,8250,18.5,74028.3,1.47,-2.99,-10.79,0,*7D
1497110544.42,8251,18.5,74016.3,1.49,-2.83,-10.05,0,*72
1497110545.64,8252,18.5,74016.5,1.49,-2.75,-9.79,0,*4B
1497110546.9,8253,18.5,74018.3,1.47,-2.59,-9.45,0,*45
1497110548.14,8254,18.5,74020.5,1.47,-2.71,-9.71,0,*4F
1497110549.35,8255,18.5,74024.3,1.49,-2.71,-10.05,0,*7B
1497110550.57,8256,18.5,74020.5,1.49,-2.71,-10.23,0,*7C
1497110551.79,8257,18.5,74024.8,1.49,-2.75,-10.49,0,*75
1497110553.0,8258,18.5,74024.5,1.49,-2.83,-10.75,0,*7C
1497110554.22,8259,18.5,74026.3,1.49,-2.75,-10.97,0,*78
1497110555.44,8260,18.5,74024.3,1.49,-2.83,-11.89,0,*75
1497110556.65,8261,18.5,74024.8,1.49,-2.83,-12.07,0,*71
1497110557.87,8262,18.5,74020.8,1.49,-2.95,-12.61,0,*75
1497110559.09,8263,18.5,74020.3,1.49,-2.91,-12.83,0,*7C
1497110560.3,8264,18.5,74018.0,1.49,-3.19,-13.33,0,*70
1497110561.49,8265,18.5,74018.8,1.49,-3.27,-13.15,0,*78
1497110562.71,8266,18.5,74016.5,1.49,-3.27,-13.33,0,*7F
1497110563.93,8267,18.5,74014.8,1.49,-3.51,-13.65,0,*7C
1497110565.17,8268,18.5,74008.3,1.49,-3.47,-13.33,0,*77
1497110566.42,8269,18.5,74006.5,1.47,-3.47,-13.65,0,*7B
1497110567.68,8270,18.5,74010.3,1.47,-3.47,-13.87,0,*7F
1497110568.92,8271,18.5,74010.0,1.47,-3.71,-14.19,0,*7B
1497110570.19,8272,18.5,74010.0,1.47,-3.71,-14.05,0,*75
1497110571.39,8273,18.5,74012.3,1.45,-3.75,-14.11,0,*77
1497110572.6,8274,18.5,74012.8,1.45,-3.67,-14.11,0,*73
1497110573.85,8275,18.5,74012.0,1.45,-3.63,-13.97,0,*7F
1497110575.13,8276,18.5,74006.3,1.47,-3.59,-13.97,0,*77
1497110576.37,8277,18.5,74006.8,1.45,-3.43,-13.79,0,*7F
1497110577.58,8278,18.5,74008.5,1.45,-3.63,-13.93,0,*76
1497110578.82,8279,18.5,74010.0,1.45,-3.55,-13.83,0,*73
1497110580.07,8280,18.5,74010.3,1.47,-3.07,-13.33,0,*7B
1497110581.3,8281,18.5,74010.3,1.47,-2.95,-13.19,0,*78
1497110582.54,8282,18.5,74012.0,1.47,-2.95,-13.29,0,*78
1497110583.76,8283,18.5,74010.0,1.47,-2.99,-13.43,0,*79
1497110584.99,8284,18.5,74012.3,1.47,-3.83,-14.15,0,*70
1497110586.21,8285,18.5,74010.8,1.47,-4.09,-14.15,0,*74
1497110587.44,8286,18.5,74008.5,1.45,-3.91,-13.97,0,*7E
1497110588.7,8287,18.5,74014.0,1.47,-4.77,-15.01,0,*7B
1497110589.91,8288,18.5,74014.3,1.45,-4.45,-14.51,0,*73
1497110591.11,8289,18.5,74014.3,1.39,-4.17,-14.15,0,*7E
1497110592.33,8290,18.5,74012.5,1.43,-3.91,-14.19,0,*7E
1497110593.55,8291,18.5,74012.0,1.39,-3.55,-13.73,0,*71
1497110594.77,8292,18.5,74018.3,1.43,-3.39,-13.51,0,*75
1497110596.01,8293,18.5,74010.3,1.43,-3.11,-13.37,0,*7E
1497110597.22,8294,18.5,74008.0,1.43,-3.11,-13.47,0,*7E
1497110598.47,8295,18.5,74008.3,1.43,-3.39,-13.61,0,*71
1497110599.71,8296,18.5,74014.3,1.43,-3.31,-13.61,0,*7A
1497110600.96,8297,18.5,74012.8,1.45,-3.63,-14.05,0,*7F
1497110602.16,8298,18.56,74018.5,1.45,-3.87,-14.37,0,*7B
1497110603.37,8299,18.5,74016.5,1.45,-3.75,-13.79,0,*7A
1497110604.62,8300,18.5,74014.3,1.43,-3.91,-13.83,0,*72
1497110605.84,8301,18.5,74016.8,1.43,-3.91,-13.69,0,*77
1497110607.09,8302,18.5,74018.3,1.43,-3.63,-12.97,0,*79
1497110608.34,8303,18.5,74016.3,1.43,-3.51,-12.21,0,*74
1497110609.56,8304,18.5,74022.0,1.43,-3.27,-11.23,0,*73
1497110610.78,8305,18.5,74026.8,1.43,-2.91,-10.01,0,*7F
1497110612.02,8306,18.5,74024.5,1.43,-2.79,-9.15,0,*47
1497110613.25,8307,18.5,74020.0,1.43,-2.67,-8.41,0,*49
1497110614.48,8308,18.5,74026.5,1.43,-2.91,-7.99,0,*45
1497110615.74,8309,18.5,74018.0,1.43,-2.67,-7.99,0,*4D
1497110616.93,8310,18.5,74024.0,1.39,-2.79,-8.29,0,*43
1497110618.13,8311,18.5,74020.3,1.43,-2.79,-8.25,0,*43
1497110619.32,8312,18.5,74020.5,1.39,-2.91,-8.17,0,*4A
1497110620.56,8313,18.5,74020.3,1.43,-2.99,-7.73,0,*43
1497110621.75,8314,18.5,74020.3,1.45,-3.11,-7.49,0,*4A
1497110622.96,8315,18.5,74020.3,1.45,-3.15,-7.31,0,*40
1497110624.2,8316,18.5,74022.3,1.43,-3.15,-7.05,0,*42
1497110625.41,8317,18.5,74018.8,1.45,-3.03,-7.01,0,*46
1497110626.61,8318,18.5,74020.8,1.45,-2.91,-7.05,0,*47
1497110627.85,8319,18.5,74016.5,1.43,-2.87,-7.01,0,*43
1497110629.06,8320,18.5,74020.0,1.43,-2.91,-6.77,0,*4E
1497110630.25,8321,18.5,74022.3,1.45,-3.15,-6.81,0,*4D
1497110631.45,8322,18.5,74022.8,1.45,-3.27,-6.89,0,*47
1497110632.64,8323,18.5,74020.8,1.45,-3.15,-7.19,0,*4F
1497110633.88,8324,18.5,74022.8,1.47,-3.27,-7.65,0,*40
1497110635.12,8325,18.5,74024.3,1.47,-3.19,-7.65,0,*4C
1497110636.34,8326,18.5,74020.0,1.45,-3.15,-7.31,0,*40
1497110637.55,8327,18.5,74016.5,1.45,-3.03,-6.27,0,*40
1497110638.79,8328,18.5,74018.3,1.47,-2.83,-5.93,0,*48
1497110640.03,8329,18.5,74016.5,1.47,-3.19,-6.63,0,*47
1497110641.27,8330,18.5,74022.3,1.45,-3.51,-7.01,0,*44
1497110642.47,8331,18.5,74020.3,1.45,-3.75,-7.49,0,*4F
1497110643.71,8332,18.5,74016.8,1.45,-3.63,-7.31,0,*44
1497110644.93,8333,18.5,74022.8,1.45,-3.75,-7.57,0,*42
1497110646.17,8334,18.5,74022.3,1.43,-4.13,-7.95,0,*4A
1497110647.38,8335,18.5,74018.5,1.43,-4.41,-8.21,0,*4C
1497110648.56,8336,18.5,74026.3,1.39,-4.37,-8.17,0,*46
1497110649.81,8337,18.5,74030.0,1.43,-3.79,-7.73,0,*4A
1497110651.03,8338,18.5,74028.3,1.39,-3.79,-7.73,0,*48
1497110652.25,8339,18.5,74034.3,1.39,-3.91,-8.11,0,*44
1497110653.45,8340,18.5,74030.0,1.39,-3.83,-8.29,0,*42
1497110654.68,8341,18.5,74030.0,1.43,-4.13,-8.81,0,*42
1497110655.89,8342,18.5,74034.3,1.39,-4.45,-9.41,0,*42
1497110657.1,8343,18.5,74032.3,1.39,-4.33,-9.57,0,*45
1497110658.29,8344,18.5,74032.3,1.39,-4.33,-9.93,0,*4A
1497110659.51,8345,18.5,74032.3,1.43,-4.33,-10.53,0,*72
1497110660.71,8346,18.5,74026.5,1.39,-4.33,-10.85,0,*77
1497110661.91,8347,18.5,74026.5,1.39,-4.21,-10.97,0,*76
1497110663.1,8348,18.5,74030.0,1.39,-4.49,-11.41,0,*7D
1497110664.37,8349,18.5,74030.5,1.43,-4.89,-11.93,0,*72
1497110665.59,8350,18.5,74030.8,1.39,-4.85,-11.45,0,*70
1497110666.83,8351,18.5,74026.5,1.39,-5.11,-11.67,0,*7D
1497110668.06,8352,18.5,74030.8,1.43,-4.99,-11.77,0,*73
1497110669.29,8353,18.5,74030.0,1.43,-4.99,-11.81,0,*7B
1497110670.56,8354,18.5,74030.0,1.43,-5.11,-12.07,0,*70
1497110671.78,8355,18.5,74026.3,1.39,-5.15,-12.03,0,*7C
1497110673.03,8356,18.5,74024.3,1.39,-5.03,-11.67,0,*79
1497110674.28,8357,18.5,74028.3,1.39,-5.15,-12.11,0,*7D
1497110675.51,8358,18.5,74030.3,1.43,-4.45,-11.29,0,*73
1497110676.73,8359,18.5,74030.3,1.39,-4.49,-11.67,0,*79
1497110677.94,8360,18.5,74028.8,1.39,-4.37,-11.81,0,*72
1497110679.15,8361,18.5,74020.5,1.43,-4.45,-12.25,0,*76
1497110680.38,8362,18.5,74020.3,1.45,-4.77,-12.65,0,*76
1497110681.62,8363,18.5,74022.8,1.45,-4.93,-12.79,0,*70
1497110682.84,8364,18.5,74022.0,1.45,-5.11,-13.19,0,*7B
1497110684.09,8365,18.5,74024.8,1.45,-5.23,-13.33,0,*73
1497110685.32,8366,18.5,74018.5,1.45,-5.19,-13.19,0,*71
1497110686.53,8367,18.5,74022.0,1.45,-5.23,-13.47,0,*72
1497110687.77,8368,18.5,74018.0,1.47,-5.19,-13.65,0,*76
1497110688.99,8369,18.5,74020.8,1.45,-5.69,-14.11,0,*76
1497110690.21,8370,18.5,74016.8,1.45,-5.19,-13.65,0,*7D
1497110691.43,8371,18.5,74018.3,1.45,-5.69,-14.23,0,*7E
1497110692.64,8372,18.5,74018.0,1.45,-5.73,-14.23,0,*76
1497110693.84,8373,18.5,74020.3,1.45,-5.97,-14.65,0,*7F
1497110695.08,8374,18.5,74020.8,1.43,-5.89,-13.93,0,*7F
1497110696.32,8375,18.5,74022.5,1.43,-5.81,-13.65,0,*7F
1497110697.54,8376,18.5,74024.5,1.43,-5.97,-14.61,0,*78
1497110698.81,8377,18.5,74022.8,1.43,-5.89,-14.83,0,*7A
1497110700.03,8378,18.5,74022.3,1.39,-6.01,-15.01,0,*70
1497110701.24,8379,18.5,74020.3,1.43,-4.99,-14.11,0,*7F
1497110702.48,8380,18.5,74024.5,1.43,-5.23,-14.37,0,*7D
1497110703.75,8381,18.5,74022.5,1.43,-5.61,-14.83,0,*75
1497110704.96,8382,18.5,74024.0,1.43,-5.43,-14.61,0,*7A
1497110706.16,8383,18.5,74024.5,1.49,-5.51,-14.89,0,*74
1497110707.41,8384,18.5,74026.5,1.45,-5.85,-15.35,0,*70
1497110708.64,8385,18.5,74030.0,1.45,-5.89,-15.25,0,*7C
1497110709.89,8386,18.5,74032.0,1.45,-5.69,-15.21,0,*75
1497110711.09,8387,18.5,74030.8,1.45,-5.55,-15.11,0,*78
1497110712.31,8388,18.5,74020.0,1.45,-5.35,-14.93,0,*7A
1497110713.58,8389,18.5,74026.5,1.47,-5.19,-14.97,0,*73
1497110714.83,8390,18.5,74022.5,1.47,-5.31,-15.07,0,*79
1497110716.07,8391,18.5,74024.3,1.47,-5.27,-15.15,0,*7C
1497110717.28,8392,18.5,74030.0,1.49,-5.43,-15.21,0,*74
1497110718.52,8393,18.5,74030.8,1.49,-5.27,-15.21,0,*77
1497110719.77,8394,18.5,74030.5,1.51,-5.27,-15.15,0,*7E
1497110721.02,8395,18.5,74026.8,1.51,-5.23,-15.15,0,*7B
1497110722.25,8396,18.5,74020.8,1.49,-4.93,-14.93,0,*74
1497110723.52,8397,18.5,74024.0,1.51,-4.89,-14.97,0,*73
1497110724.79,8398,18.5,74022.3,1.51,-5.03,-14.97,0,*7F
1497110726.05,8399,18.5,74022.0,1.55,-4.85,-14.97,0,*75
1497110727.27,8400,18.5,74012.5,1.55,-4.99,-15.11,0,*70
1497110728.48,8401,18.5,74018.5,1.53,-4.93,-15.07,0,*7A
1497110729.71,8402,18.5,74018.3,1.55,-4.85,-15.07,0,*78
1497110730.95,8403,18.5,74012.5,1.55,-4.81,-15.11,0,*7A
1497110732.19,8404,18.5,74010.8,1.55,-4.85,-15.07,0,*7E
1497110733.43,8405,18.5,74014.3,1.55,-4.99,-15.35,0,*73
1497110734.7,8406,18.5,74016.3,1.55,-5.23,-15.85,0,*7B
1497110735.97,8407,18.5,74012.5,1.59,-5.69,-16.27,0,*73
1497110737.21,8408,18.5,74014.5,1.57,-5.65,-16.27,0,*7E
1497110738.45,8409,18.5,74014.5,1.57,-5.69,-16.27,0,*73
1497110739.67,8410,18.5,74016.3,1.57,-5.51,-16.17,0,*73
1497110740.89,8411,18.5,74016.8,1.57,-5.51,-16.09,0,*7D
1497110742.07,8412,18.5,74012.5,1.57,-5.43,-15.95,0,*7B
1497110743.29,8413,18.5,74014.3,1.57,-5.39,-15.81,0,*72
1497110744.53,8414,18.5,74014.5,1.59,-5.19,-15.07,0,*77
1497110745.77,8415,18.5,74012.8,1.57,-5.15,-14.75,0,*70
1497110747.01,8416,18.5,74010.8,1.57,-4.89,-14.05,0,*70
1497110748.27,8417,18.5,74008.8,1.59,-4.73,-13.61,0,*7F
1497110749.5,8418,18.5,74010.3,1.59,-4.81,-13.15,0,*7E
1497110750.74,8419,18.5,73996.3,1.59,-4.61,-12.15,0,*70
1497110751.96,8420,18.5,73990.8,1.59,-4.61,-10.93,0,*76
1497110753.17,8421,18.5,73990.3,1.59,-4.29,-9.79,0,*47
1497110754.36,8422,18.5,73990.5,1.61,-3.91,-8.71,0,*42
1497110755.56,8423,18.5,73990.0,1.65,-3.55,-8.29,0,*42
1497110756.79,8424,18.5,73988.5,1.65,-3.55,-8.51,0,*4A
1497110758.02,8425,18.5,73996.3,1.65,-3.55,-9.11,0,*4E
1497110759.22,8426,18.5,73998.0,1.65,-3.67,-9.89,0,*4D
1497110760.42,8427,18.5,73998.0,1.65,-3.75,-10.31,0,*74
1497110761.63,8428,18.5,73996.8,1.65,-3.67,-10.53,0,*7C
1497110762.86,8429,18.5,74002.8,1.65,-3.79,-10.67,0,*75
1497110764.04,8430,18.5,73998.0,1.65,-4.05,-11.15,0,*75
1497110765.26,8431,18.5,73996.8,1.65,-4.09,-11.93,0,*76
1497110766.44,8432,18.5,73996.0,1.65,-4.17,-12.97,0,*7D
1497110767.61,8433,18.5,74002.3,1.65,-4.45,-13.93,0,*7E
1497110768.83,8434,18.5,74002.5,1.67,-4.69,-14.69,0,*77
1497110770.07,8435,18.5,74006.0,1.67,-4.85,-15.11,0,*7A
1497110771.28,8436,18.5,74008.0,1.67,-4.99,-15.53,0,*72
1497110772.46,8437,18.5,74004.0,1.69,-4.99,-15.67,0,*7A
1497110773.63,8438,18.5,74010.0,1.65,-4.99,-15.67,0,*79
1497110774.84,8439,18.5,74006.3,1.65,-4.93,-15.53,0,*75
1497110776.09,8440,18.5,74008.3,1.67,-4.69,-14.97,0,*75
1497110777.33,8441,18.5,74006.8,1.67,-4.81,-15.11,0,*7D
1497110778.56,8442,18.5,74004.5,1.67,-4.81,-15.07,0,*79
1497110779.76,8443,18.5,74010.3,1.67,-4.99,-15.07,0,*71
1497110781.03,8444,18.5,74006.3,1.67,-5.07,-14.83,0,*7D
1497110782.26,8445,18.5,74008.5,1.67,-4.93,-14.65,0,*78
1497110783.49,8446,18.5,74012.8,1.67,-4.93,-14.65,0,*7B
1497110784.72,8447,18.5,74010.8,1.67,-4.69,-14.33,0,*7C
1497110785.94,8448,18.5,74010.5,1.67,-4.69,-14.11,0,*73
1497110787.17,8449,18.5,74006.0,1.67,-4.99,-14.43,0,*7A
1497110788.4,8450,18.5,74002.5,1.67,-4.85,-14.65,0,*7B
1497110789.65,8451,18.5,74006.0,1.67,-4.85,-14.79,0,*77
1497110790.86,8452,18.5,74006.0,1.65,-4.85,-14.65,0,*7B
1497110792.09,8453,18.5,74006.0,1.67,-4.85,-14.19,0,*73
1497110793.32,8454,18.5,74008.5,1.65,-4.81,-14.79,0,*74
1497110794.52,8455,18.5,74006.8,1.65,-5.11,-15.99,0,*72
1497110795.73,8456,18.5,74010.8,1.65,-5.11,-16.41,0,*77
1497110796.95,8457,18.5,74008.3,1.65,-5.07,-16.75,0,*76
1497110798.16,8458,18.5,74010.3,1.65,-5.31,-16.75,0,*7C
1497110799.35,8459,18.5,74010.3,1.61,-5.35,-16.79,0,*71
1497110800.57,8460,18.5,74014.0,1.61,-5.27,-16.59,0,*7A
1497110801.82,8461,18.5,74014.0,1.61,-5.23,-16.65,0,*70
1497110803.03,8462,18.5,74018.3,1.61,-5.27,-16.93,0,*7E
1497110804.24,8463,18.5,74010.5,1.65,-5.11,-16.83,0,*7F
1497110805.47,8464,18.5,74012.3,1.61,-4.85,-16.65,0,*78
1497110806.68,8465,18.5,74008.0,1.61,-4.77,-16.59,0,*7B
1497110807.87,8466,18.5,74006.5,1.61,-4.99,-16.79,0,*7A
1497110809.08,8467,18.5,74004.0,1.61,-4.77,-16.75,0,*77
1497110810.32,8468,18.5,74006.3,1.61,-4.85,-16.65,0,*74
1497110811.5,8469,18.5,74004.3,1.61,-4.99,-16.79,0,*75
1497110812.72,8470,18.5,74008.5,1.61,-4.89,-16.79,0,*7C
1497110813.89,8471,18.5,74006.5,1.65,-4.99,-16.89,0,*77
1497110815.11,8472,18.5,74008.0,1.61,-4.89,-16.79,0,*7E
1497110816.32,8473,18.5,74012.3,1.61,-4.77,-16.75,0,*72
1497110817.53,8474,18.5,74010.5,1.61,-4.85,-16.79,0,*74
1497110818.77,8475,18.5,74008.5,1.59,-4.65,-16.51,0,*7A
1497110820.0,8476,18.5,74010.5,1.61,-4.73,-16.31,0,*73
1497110821.24,8477,18.5,74014.0,1.59,-4.73,-16.41,0,*7E
1497110822.48,8478,18.5,74008.3,1.59,-4.77,-16.79,0,*7E
1497110823.66,8479,18.5,74006.8,1.65,-4.65,-16.55,0,*7D
1497110824.88,8480,18.5,74010.0,1.57,-5.07,-16.97,0,*71
1497110826.14,8481,18.5,74012.8,1.59,-4.81,-16.69,0,*70
1497110827.37,8482,18.5,74010.8,1.57,-4.93,-16.69,0,*7E
1497110828.59,8483,18.5,74016.8,1.57,-5.07,-16.55,0,*7C
1497110829.83,8484,18.5,74016.3,1.57,-5.07,-16.27,0,*7E
1497110831.04,8485,18.5,74018.3,1.57,-4.81,-16.03,0,*76
1497110832.23,8486,18.5,74018.8,1.57,-4.53,-15.29,0,*71
1497110833.44,8487,18.5,74016.5,1.57,-4.53,-15.01,0,*7A
1497110834.68,8488,18.5,74016.0,1.55,-4.65,-14.93,0,*78
1497110835.87,8489,18.5,74016.3,1.57,-4.25,-14.33,0,*75
1497110837.09,8490,18.5,74018.3,1.57,-4.01,-14.19,0,*73
1497110838.27,8491,18.5,74020.0,1.57,-4.13,-14.19,0,*71
1497110839.47,8492,18.5,74016.5,1.57,-3.83,-14.29,0,*7F
1497110840.69,8493,18.5,74012.3,1.57,-3.87,-14.79,0,*7F
1497110841.91,8494,18.5,74018.0,1.57,-3.95,-15.81,0,*7D
1497110843.16,8495,18.5,74016.0,1.57,-4.01,-16.17,0,*7A
1497110844.41,8496,18.5,74014.3,1.57,-4.01,-16.17,0,*79
1497110845.66,8497,18.5,74012.3,1.57,-4.01,-16.17,0,*78
1497110846.91,8498,18.5,74018.0,1.57,-4.01,-16.09,0,*78
1497110848.13,8499,18.5,74020.0,1.57,-3.95,-16.17,0,*7C
1497110849.38,8500,18.5,74018.8,1.57,-4.01,-16.09,0,*78
1497110850.6,8501,18.5,74014.3,1.57,-4.05,-15.81,0,*7E
1497110851.81,8502,18.5,74018.8,1.57,-4.13,-15.89,0,*72
1497110853.03,8503,18.5,74016.3,1.59,-4.05,-16.03,0,*7B
1497110854.25,8504,18.5,74016.3,1.57,-4.13,-16.09,0,*7F
1497110855.44,8505,18.5,74020.0,1.57,-3.95,-15.95,0,*71
1497110856.67,8506,18.5,74014.8,1.57,-4.01,-15.95,0,*78
1497110857.85,8507,18.5,74014.0,1.57,-4.05,-16.03,0,*71
1497110859.07,8508,18.5,74016.8,1.59,-4.05,-16.03,0,*70
1497110860.27,8509,18.5,74016.5,1.57,-3.95,-15.75,0,*73
1497110861.49,8510,18.5,74022.5,1.59,-3.87,-15.63,0,*71
1497110862.7,8511,18.5,74018.5,1.57,-3.83,-15.29,0,*74
1497110863.89,8512,18.5,74018.8,1.57,-3.87,-15.15,0,*7C
1497110865.09,8513,18.5,74018.3,1.57,-3.95,-15.49,0,*77
1497110866.34,8514,18.5,74018.3,1.59,-4.05,-15.81,0,*74
1497110867.54,8515,18.5,74022.8,1.57,-3.75,-15.53,0,*74
1497110868.76,8516,18.5,74020.8,1.57,-3.71,-15.53,0,*73
1497110870.0,8517,18.5,74020.5,1.57,-3.59,-15.21,0,*7D
1497110871.22,8518,18.5,74024.8,1.57,-3.75,-15.21,0,*7C
1497110872.47,8519,18.5,74024.8,1.59,-3.71,-15.15,0,*70
1497110873.69,8520,18.5,74020.3,1.59,-3.35,-14.89,0,*7E
1497110874.91,8521,18.5,74020.0,1.57,-3.39,-14.75,0,*7E
1497110876.12,8522,18.5,74020.0,1.57,-3.47,-14.61,0,*71
1497110877.37,8523,18.5,74020.3,1.59,-3.71,-14.89,0,*7D
1497110878.64,8524,18.5,74018.0,1.59,-3.59,-14.79,0,*7F
1497110879.86,8525,18.5,74016.3,1.57,-3.47,-14.61,0,*76
1497110881.1,8526,18.5,74022.5,1.57,-3.51,-14.79,0,*7B
1497110882.37,8527,18.5,74022.3,1.59,-3.59,-15.01,0,*72
1497110883.62,8528,18.5,74016.0,1.59,-3.47,-14.89,0,*73
1497110884.87,8529,18.5,74020.0,1.59,-3.47,-14.89,0,*72
1497110886.08,8530,18.5,74016.8,1.57,-3.47,-14.89,0,*74
1497110887.31,8531,18.5,74016.5,1.59,-3.39,-14.89,0,*72
1497110888.55,8532,18.5,74022.0,1.57,-3.63,-14.79,0,*7F
1497110889.8,8533,18.5,74020.5,1.59,-3.75,-14.75,0,*7B
1497110891.04,8534,18.5,74016.3,1.57,-3.71,-14.79,0,*7A
1497110892.31,8535,18.5,74020.5,1.59,-3.51,-14.51,0,*7D
1497110893.56,8536,18.5,74024.5,1.59,-3.51,-14.29,0,*71
1497110894.79,8537,18.5,74020.8,1.59,-3.23,-13.87,0,*76
1497110896.01,8538,18.5,74020.5,1.59,-3.27,-13.73,0,*76
1497110897.25,8539,18.5,74020.3,1.59,-3.23,-13.61,0,*70
1497110898.44,8540,18.5,74024.3,1.61,-3.03,-13.11,0,*70
1497110899.66,8541,18.5,74026.5,1.61,-2.91,-12.71,0,*7C
1497110900.87,8542,18.5,74026.0,1.61,-3.03,-13.29,0,*79
1497110902.12,8543,18.5,74022.5,1.59,-3.15,-14.01,0,*79
1497110903.35,8544,18.5,74024.0,1.59,-2.87,-13.79,0,*7C
1497110904.58,8545,18.5,74026.5,1.59,-2.87,-13.79,0,*7D
1497110905.77,8546,18.5,74022.5,1.61,-2.79,-13.73,0,*7E
1497110906.99,8547,18.5,74020.0,1.61,-2.95,-13.97,0,*77
1497110908.2,8548,18.5,74022.8,1.65,-2.67,-13.65,0,*7C
1497110909.4,8549,18.5,74020.8,1.65,-2.75,-13.65,0,*7E
1497110910.61,8550,18.5,74020.8,1.65,-2.67,-13.55,0,*76
1497110911.84,8551,18.5,74018.0,1.65,-2.51,-13.33,0,*72
1497110913.03,8552,18.5,74016.5,1.65,-2.39,-13.19,0,*77
1497110914.26,8553,18.5,74014.5,1.65,-2.55,-13.33,0,*74
1497110915.5,8554,18.5,74008.8,1.67,-2.63,-13.43,0,*73
1497110916.73,8555,18.5,74012.8,1.67,-2.75,-13.65,0,*71
1497110917.91,8556,18.5,74016.3,1.69,-2.23,-13.07,0,*7B
1497110919.15,8557,18.5,74016.3,1.69,-2.07,-12.65,0,*79
1497110920.39,8558,18.5,74016.0,1.69,-1.99,-12.75,0,*73
1497110921.66,8559,18.5,74018.8,1.71,-1.95,-12.75,0,*77
1497110922.93,8560,18.5,74016.3,1.73,-1.91,-12.71,0,*7F
1497110924.19,8561,18.5,74010.8,1.73,-1.91,-12.61,0,*7F
1497110925.43,8562,18.5,74010.5,1.75,-1.91,-12.57,0,*7F
1497110926.67,8563,18.5,74012.5,1.75,-1.91,-12.57,0,*7E